|
Cosmos 1484 Rocket - Orbit
|
Donald C. Martin Observatory;
12:39:58
| Home | Info | Passes |
|
View from above orbital plane
|
View from above satellite
|
Ground track
|
The orbit data is extracted from the following two-line orbital elements,
1 14208U 83075B 13143.19313308 .00001865 00000-0 13269-3 0 7484
2 14208 097.4756 188.0912 0044339 192.9540 167.0552 15.05066256623516
| Epoch (UTC): | 23 May 2013 04:38:06 |
| Eccentricity: | 0.0044339 |
| inclination: | 97.4756° |
| perigee height: | 520 km |
| apogee height: | 582 km |
| right ascension of ascending node: | 188.0912° |
| argument of perigee: | 192.9540° |
| revolutions per day: | 15.05066256 |
| mean anomaly at epoch: | 167.0552° |
| orbit number at epoch: | 62351 |
The dashed part of the orbit path shows where the satellite is in the earth's shadow,
|
|